Maike D — V2FO4 — position and weather

sailwx.info

Track history (hours):
 
Tides and Currents Weather Stations Pressure Air Temp Water Temp Dewpoint Dewpoint Depression Visibility Wind Speed Wind Dir Waves Ship Positions

Maike D

Last reported at 2014-Nov-29 05:33 UTC. Time now 2014-Nov-29 07:24 UTC.
Position N 54°33' E 012°23'.

Length 133 m; draft 6.8 m.

Type: Ship (hazmat cat A). MMSI: 305739000.

Date/timePositionNaut miles runAvg speedWind from/ knotsBaromVisibWave heightAir tempDewpointWater temp
2014-Nov-29 05:33N 54°33' E 012°23'1212.0
2014-Nov-29 04:34N 54°24' E 012°10'5112.0
2014-Nov-29 00:20N 54°34' E 010°44'912.2
2014-Nov-28 23:33N 54°32' E 010°29'1211.6
2014-Nov-28 22:33N 54°25' E 010°13'4 3.9
2014-Nov-28 21:33N 54°22' E 010°09'6 5.6
2014-Nov-28 20:33N 54°21' E 009°59'8 7.7
2014-Nov-28 19:33N 54°21' E 009°46'7 7.4
2014-Nov-28 18:33N 54°16' E 009°37'5 4.5
2014-Nov-28 17:33N 54°12' E 009°33'8 8.0
2014-Nov-28 16:33N 54°08' E 009°21'7 6.6
2014-Nov-28 15:34N 54°02' E 009°18'8 7.8
2014-Nov-28 14:34N 53°55' E 009°12'3 2.9
2014-Nov-28 13:34N 53°53' E 009°08'8 8.1
2014-Nov-28 12:33N 53°51' E 008°55'1211.7
2014-Nov-28 11:33N 53°57' E 008°38'1212.2
2014-Nov-28 10:33N 53°60' E 008°18'1211.8
2014-Nov-28 09:33N 53°58' E 007°58'1313.1
2014-Nov-28 08:32N 53°55' E 007°36'4611.5
2014-Nov-28 04:33N 53°44' E 006°20'1111.1
2014-Nov-28 03:33N 53°41' E 006°02'1111.2
2014-Nov-28 02:33N 53°37' E 005°45'1111.5
2014-Nov-28 01:33N 53°34' E 005°26'1211.9
2014-Nov-28 00:33N 53°30' E 005°07'1212.2
2014-Nov-27 23:33N 53°26' E 004°48'1212.4
2014-Nov-27 22:33N 53°15' E 004°36'10012.5
2014-Nov-27 14:33N 51°47' E 003°17'1110.3
2014-Nov-27 13:30N 51°37' E 003°22'910.0
2014-Nov-27 12:33N 51°29' E 003°30'9 8.7
2014-Nov-27 11:33N 51°25' E 003°43'9 9.4
2014-Nov-27 10:34N 51°25' E 003°58'10 9.8
2014-Nov-27 09:34N 51°23' E 004°13'3 3.4
2014-Nov-27 08:33N 51°21' E 004°17'0 0.4
2014-Nov-27 07:33N 51°21' E 004°18'2 1.5
2014-Nov-27 06:32N 51°19' E 004°19'0 0.0
2014-Nov-27 05:32N 51°19' E 004°19'0 0.0
2014-Nov-27 04:29N 51°19' E 004°19'0 0.0
2014-Nov-27 03:29N 51°19' E 004°19'0 0.0
2014-Nov-27 02:32N 51°19' E 004°19'0 0.0
2014-Nov-27 01:32N 51°19' E 004°19'0 0.0
2014-Nov-27 00:32N 51°19' E 004°19'0 0.0
2014-Nov-26 23:29N 51°19' E 004°19'0 0.0
2014-Nov-26 22:23N 51°19' E 004°19'0 0.0
2014-Nov-26 21:32N 51°19' E 004°19'0 0.0
2014-Nov-26 20:32N 51°19' E 004°19'0 0.0
2014-Nov-26 19:32N 51°19' E 004°19'1 1.2
2014-Nov-26 18:34N 51°20' E 004°18'1 0.7
2014-Nov-26 17:33N 51°21' E 004°17'2 1.5
2014-Nov-26 16:34N 51°21' E 004°15'9 8.7
2014-Nov-26 15:33N 51°24' E 004°02'9 9.2
2014-Nov-26 14:33N 51°21' E 003°48'1010.3
2014-Nov-26 13:33N 51°26' E 003°34'1110.7
2014-Nov-26 12:33N 51°35' E 003°24'1110.5
2014-Nov-26 11:33N 51°44' E 003°15'5 2.7
2014-Nov-26 09:32N 51°48' E 003°21'0 0.0
2014-Nov-26 06:23N 51°48' E 003°21'0 0.1
2014-Nov-26 05:23N 51°48' E 003°21'0 0.0
2014-Nov-26 04:29N 51°48' E 003°21'0 0.0
2014-Nov-26 03:17N 51°48' E 003°21'0 0.1
2014-Nov-26 02:32N 51°48' E 003°21'0 0.1
2014-Nov-26 01:26N 51°48' E 003°21'0 0.0
2014-Nov-25 23:32N 51°48' E 003°21'0 0.0
2014-Nov-25 22:26N 51°48' E 003°21'0 0.0
2014-Nov-25 21:26N 51°48' E 003°21'0 0.0
2014-Nov-25 20:31N 51°48' E 003°21'0 0.0
2014-Nov-25 19:16N 51°48' E 003°21'0 0.0
2014-Nov-25 18:25N 51°48' E 003°21'0 0.1
2014-Nov-25 17:22N 51°48' E 003°21'0 0.1
2014-Nov-25 16:28N 51°48' E 003°21'0 0.0
2014-Nov-25 15:28N 51°48' E 003°21'0 0.1
2014-Nov-25 14:31N 51°48' E 003°21'0 0.2
2014-Nov-25 13:31N 51°48' E 003°21'0 0.0
2014-Nov-25 12:13N 51°48' E 003°21'0 0.0
2014-Nov-25 11:04N 51°48' E 003°21'0 0.0
2014-Nov-25 10:31N 51°48' E 003°21'0 0.0
2014-Nov-25 09:31N 51°48' E 003°21'0 0.0
2014-Nov-25 07:31N 51°48' E 003°21'0 0.0
2014-Nov-25 06:28N 51°48' E 003°21'0 0.1
2014-Nov-25 05:31N 51°48' E 003°21'0 0.0
2014-Nov-25 04:22N 51°48' E 003°21'0 0.0
2014-Nov-25 03:16N 51°48' E 003°21'0 0.1
2014-Nov-25 00:28N 51°48' E 003°21'0 0.0
2014-Nov-24 17:31N 51°48' E 003°21'0 0.0
2014-Nov-24 15:22N 51°48' E 003°21'1 0.3
2014-Nov-24 12:31N 51°49' E 003°21'20 9.9
2014-Nov-24 10:33N 52°03' E 003°43'1212.0
2014-Nov-24 09:33N 51°60' E 004°02'1312.8
2014-Nov-24 08:33N 51°54' E 004°20'3 3.1
2014-Nov-24 07:31N 51°53' E 004°25'0 0.0
2014-Nov-24 06:31N 51°53' E 004°25'0 0.0
2014-Nov-24 05:31N 51°53' E 004°25'0 0.0
2014-Nov-24 04:31N 51°53' E 004°25'0 0.0
2014-Nov-24 03:31N 51°53' E 004°25'0 0.0
2014-Nov-24 02:31N 51°53' E 004°25'0 0.1
2014-Nov-24 01:33N 51°53' E 004°25'7 7.2
2014-Nov-24 00:33N 51°55' E 004°14'1312.8
2014-Nov-23 23:34N 51°60' E 003°55'1212.5
2014-Nov-23 22:33N 51°57' E 003°35'1413.8
2014-Nov-23 21:31N 51°53' E 003°13'2912.9
2014-Nov-23 19:16N 51°41' E 002°30'913.3
2014-Nov-23 18:33N 51°33' E 002°21'1413.8
2014-Nov-23 17:32N 51°23' E 002°06'1313.0
2014-Nov-23 16:33N 51°29' E 001°48'1414.2
2014-Nov-23 15:33N 51°28' E 001°26'1716.5
2014-Nov-23 14:33N 51°29' E 000°59'1716.7
2014-Nov-23 13:34N 51°30' E 000°32'8 7.9
2014-Nov-23 12:33N 51°27' E 000°21'0 0.3
2014-Nov-23 11:33N 51°28' E 000°20'0 0.0
2014-Nov-23 10:33N 51°28' E 000°20'0 0.0
2014-Nov-23 09:33N 51°28' E 000°20'0 0.0
2014-Nov-23 08:33N 51°28' E 000°20'0 0.0
2014-Nov-23 07:33N 51°28' E 000°20'0 0.0
2014-Nov-23 06:33N 51°28' E 000°20'0 0.0
2014-Nov-23 05:33N 51°28' E 000°20'0 0.0
2014-Nov-23 04:33N 51°28' E 000°20'0 0.0
2014-Nov-23 03:33N 51°28' E 000°20'0 0.4
2014-Nov-23 02:33N 51°27' E 000°20'5 4.7
2014-Nov-23 01:33N 51°29' E 000°27'1212.3
2014-Nov-23 00:33N 51°29' E 000°47'1616.1
2014-Nov-22 23:34N 51°29' E 001°13'1212.2
2014-Nov-22 22:33N 51°25' E 001°31'10 9.9
2014-Nov-22 21:33N 51°17' E 001°40'1413.6
2014-Nov-22 20:32N 51°03' E 001°36'  
2014-Nov-20 02:05N 38°37' W 009°24'814.1
2014-Nov-20 01:33N 38°41' W 009°16'9 8.6
2014-Nov-20 00:33N 38°44' W 009°06'0 0.0
2014-Nov-19 23:20N 38°44' W 009°06'0 0.0
2014-Nov-19 22:32N 38°44' W 009°06'0 0.0
2014-Nov-19 21:26N 38°44' W 009°06'0 0.0
2014-Nov-19 20:29N 38°44' W 009°06'0 0.0
2014-Nov-19 19:32N 38°44' W 009°06'0 0.0
2014-Nov-19 18:26N 38°44' W 009°06'0 0.0
2014-Nov-19 17:29N 38°44' W 009°06'0 0.0
2014-Nov-19 16:32N 38°44' W 009°06'0 0.0
2014-Nov-19 15:32N 38°44' W 009°06'2 2.2
2014-Nov-19 14:34N 38°42' W 009°07'8 7.6
2014-Nov-19 13:33N 38°41' W 009°17'2512.6
2014-Nov-19 11:33N 38°17' W 009°26'1313.7
2014-Nov-19 10:33N 38°03' W 009°26'1413.4
2014-Nov-19 09:33N 37°50' W 009°27'1413.5
2014-Nov-19 08:33N 37°36' W 009°27'  
Track history (hours):
 
Tides and Currents Weather Stations Pressure Air Temp Water Temp Dewpoint Dewpoint Depression Visibility Wind Speed Wind Dir Waves Ship Positions

Maike D

Last reported at 2014-Nov-29 05:33 UTC. Time now 2014-Nov-29 07:24 UTC.
Position N 54°33' E 012°23'.

Length 133 m; draft 6.8 m.

Type: Ship (hazmat cat A). MMSI: 305739000.

Date/timePositionNaut miles runAvg speedWind from/ knotsBaromVisibWave heightAir tempDewpointWater temp
2014-Nov-29 05:33N 54°33' E 012°23'1212.0
2014-Nov-29 04:34N 54°24' E 012°10'5112.0
2014-Nov-29 00:20N 54°34' E 010°44'912.2
2014-Nov-28 23:33N 54°32' E 010°29'1211.6
2014-Nov-28 22:33N 54°25' E 010°13'4 3.9
2014-Nov-28 21:33N 54°22' E 010°09'6 5.6
2014-Nov-28 20:33N 54°21' E 009°59'8 7.7
2014-Nov-28 19:33N 54°21' E 009°46'7 7.4
2014-Nov-28 18:33N 54°16' E 009°37'5 4.5
2014-Nov-28 17:33N 54°12' E 009°33'8 8.0
2014-Nov-28 16:33N 54°08' E 009°21'7 6.6
2014-Nov-28 15:34N 54°02' E 009°18'8 7.8
2014-Nov-28 14:34N 53°55' E 009°12'3 2.9
2014-Nov-28 13:34N 53°53' E 009°08'8 8.1
2014-Nov-28 12:33N 53°51' E 008°55'1211.7
2014-Nov-28 11:33N 53°57' E 008°38'1212.2
2014-Nov-28 10:33N 53°60' E 008°18'1211.8
2014-Nov-28 09:33N 53°58' E 007°58'1313.1
2014-Nov-28 08:32N 53°55' E 007°36'4611.5
2014-Nov-28 04:33N 53°44' E 006°20'1111.1
2014-Nov-28 03:33N 53°41' E 006°02'1111.2
2014-Nov-28 02:33N 53°37' E 005°45'1111.5
2014-Nov-28 01:33N 53°34' E 005°26'1211.9
2014-Nov-28 00:33N 53°30' E 005°07'1212.2
2014-Nov-27 23:33N 53°26' E 004°48'1212.4
2014-Nov-27 22:33N 53°15' E 004°36'10012.5
2014-Nov-27 14:33N 51°47' E 003°17'1110.3
2014-Nov-27 13:30N 51°37' E 003°22'910.0
2014-Nov-27 12:33N 51°29' E 003°30'9 8.7
2014-Nov-27 11:33N 51°25' E 003°43'9 9.4
2014-Nov-27 10:34N 51°25' E 003°58'10 9.8
2014-Nov-27 09:34N 51°23' E 004°13'3 3.4
2014-Nov-27 08:33N 51°21' E 004°17'0 0.4
2014-Nov-27 07:33N 51°21' E 004°18'2 1.5
2014-Nov-27 06:32N 51°19' E 004°19'0 0.0
2014-Nov-27 05:32N 51°19' E 004°19'0 0.0
2014-Nov-27 04:29N 51°19' E 004°19'0 0.0
2014-Nov-27 03:29N 51°19' E 004°19'0 0.0
2014-Nov-27 02:32N 51°19' E 004°19'0 0.0
2014-Nov-27 01:32N 51°19' E 004°19'0 0.0
2014-Nov-27 00:32N 51°19' E 004°19'0 0.0
2014-Nov-26 23:29N 51°19' E 004°19'0 0.0
2014-Nov-26 22:23N 51°19' E 004°19'0 0.0
2014-Nov-26 21:32N 51°19' E 004°19'0 0.0
2014-Nov-26 20:32N 51°19' E 004°19'0 0.0
2014-Nov-26 19:32N 51°19' E 004°19'1 1.2
2014-Nov-26 18:34N 51°20' E 004°18'1 0.7
2014-Nov-26 17:33N 51°21' E 004°17'2 1.5
2014-Nov-26 16:34N 51°21' E 004°15'9 8.7
2014-Nov-26 15:33N 51°24' E 004°02'9 9.2
2014-Nov-26 14:33N 51°21' E 003°48'1010.3
2014-Nov-26 13:33N 51°26' E 003°34'1110.7
2014-Nov-26 12:33N 51°35' E 003°24'1110.5
2014-Nov-26 11:33N 51°44' E 003°15'5 2.7
2014-Nov-26 09:32N 51°48' E 003°21'0 0.0
2014-Nov-26 06:23N 51°48' E 003°21'0 0.1
2014-Nov-26 05:23N 51°48' E 003°21'0 0.0
2014-Nov-26 04:29N 51°48' E 003°21'0 0.0
2014-Nov-26 03:17N 51°48' E 003°21'0 0.1
2014-Nov-26 02:32N 51°48' E 003°21'0 0.1
2014-Nov-26 01:26N 51°48' E 003°21'0 0.0
2014-Nov-25 23:32N 51°48' E 003°21'0 0.0
2014-Nov-25 22:26N 51°48' E 003°21'0 0.0
2014-Nov-25 21:26N 51°48' E 003°21'0 0.0
2014-Nov-25 20:31N 51°48' E 003°21'0 0.0
2014-Nov-25 19:16N 51°48' E 003°21'0 0.0
2014-Nov-25 18:25N 51°48' E 003°21'0 0.1
2014-Nov-25 17:22N 51°48' E 003°21'0 0.1
2014-Nov-25 16:28N 51°48' E 003°21'0 0.0
2014-Nov-25 15:28N 51°48' E 003°21'0 0.1
2014-Nov-25 14:31N 51°48' E 003°21'0 0.2
2014-Nov-25 13:31N 51°48' E 003°21'0 0.0
2014-Nov-25 12:13N 51°48' E 003°21'0 0.0
2014-Nov-25 11:04N 51°48' E 003°21'0 0.0
2014-Nov-25 10:31N 51°48' E 003°21'0 0.0
2014-Nov-25 09:31N 51°48' E 003°21'0 0.0
2014-Nov-25 07:31N 51°48' E 003°21'0 0.0
2014-Nov-25 06:28N 51°48' E 003°21'0 0.1
2014-Nov-25 05:31N 51°48' E 003°21'0 0.0
2014-Nov-25 04:22N 51°48' E 003°21'0 0.0
2014-Nov-25 03:16N 51°48' E 003°21'0 0.1
2014-Nov-25 00:28N 51°48' E 003°21'0 0.0
2014-Nov-24 17:31N 51°48' E 003°21'0 0.0
2014-Nov-24 15:22N 51°48' E 003°21'1 0.3
2014-Nov-24 12:31N 51°49' E 003°21'20 9.9
2014-Nov-24 10:33N 52°03' E 003°43'1212.0
2014-Nov-24 09:33N 51°60' E 004°02'1312.8
2014-Nov-24 08:33N 51°54' E 004°20'3 3.1
2014-Nov-24 07:31N 51°53' E 004°25'0 0.0
2014-Nov-24 06:31N 51°53' E 004°25'0 0.0
2014-Nov-24 05:31N 51°53' E 004°25'0 0.0
2014-Nov-24 04:31N 51°53' E 004°25'0 0.0
2014-Nov-24 03:31N 51°53' E 004°25'0 0.0
2014-Nov-24 02:31N 51°53' E 004°25'0 0.1
2014-Nov-24 01:33N 51°53' E 004°25'7 7.2
2014-Nov-24 00:33N 51°55' E 004°14'1312.8
2014-Nov-23 23:34N 51°60' E 003°55'1212.5
2014-Nov-23 22:33N 51°57' E 003°35'1413.8
2014-Nov-23 21:31N 51°53' E 003°13'2912.9
2014-Nov-23 19:16N 51°41' E 002°30'913.3
2014-Nov-23 18:33N 51°33' E 002°21'1413.8
2014-Nov-23 17:32N 51°23' E 002°06'1313.0
2014-Nov-23 16:33N 51°29' E 001°48'1414.2
2014-Nov-23 15:33N 51°28' E 001°26'1716.5
2014-Nov-23 14:33N 51°29' E 000°59'1716.7
2014-Nov-23 13:34N 51°30' E 000°32'8 7.9
2014-Nov-23 12:33N 51°27' E 000°21'0 0.3
2014-Nov-23 11:33N 51°28' E 000°20'0 0.0
2014-Nov-23 10:33N 51°28' E 000°20'0 0.0
2014-Nov-23 09:33N 51°28' E 000°20'0 0.0
2014-Nov-23 08:33N 51°28' E 000°20'0 0.0
2014-Nov-23 07:33N 51°28' E 000°20'0 0.0
2014-Nov-23 06:33N 51°28' E 000°20'0 0.0
2014-Nov-23 05:33N 51°28' E 000°20'0 0.0
2014-Nov-23 04:33N 51°28' E 000°20'0 0.0
2014-Nov-23 03:33N 51°28' E 000°20'0 0.4
2014-Nov-23 02:33N 51°27' E 000°20'5 4.7
2014-Nov-23 01:33N 51°29' E 000°27'1212.3
2014-Nov-23 00:33N 51°29' E 000°47'1616.1
2014-Nov-22 23:34N 51°29' E 001°13'1212.2
2014-Nov-22 22:33N 51°25' E 001°31'10 9.9
2014-Nov-22 21:33N 51°17' E 001°40'1413.6
2014-Nov-22 20:32N 51°03' E 001°36'  
2014-Nov-20 02:05N 38°37' W 009°24'814.1
2014-Nov-20 01:33N 38°41' W 009°16'9 8.6
2014-Nov-20 00:33N 38°44' W 009°06'0 0.0
2014-Nov-19 23:20N 38°44' W 009°06'0 0.0
2014-Nov-19 22:32N 38°44' W 009°06'0 0.0
2014-Nov-19 21:26N 38°44' W 009°06'0 0.0
2014-Nov-19 20:29N 38°44' W 009°06'0 0.0
2014-Nov-19 19:32N 38°44' W 009°06'0 0.0
2014-Nov-19 18:26N 38°44' W 009°06'0 0.0
2014-Nov-19 17:29N 38°44' W 009°06'0 0.0
2014-Nov-19 16:32N 38°44' W 009°06'0 0.0
2014-Nov-19 15:32N 38°44' W 009°06'2 2.2
2014-Nov-19 14:34N 38°42' W 009°07'8 7.6
2014-Nov-19 13:33N 38°41' W 009°17'2512.6
2014-Nov-19 11:33N 38°17' W 009°26'1313.7
2014-Nov-19 10:33N 38°03' W 009°26'1413.4
2014-Nov-19 09:33N 37°50' W 009°27'1413.5
2014-Nov-19 08:33N 37°36' W 009°27'  

Dump ship's entire track history